Regional Weather Roundup
Issued by NWS Bismarck, ND

Home | Current Version | Previous Version | Text Only | Print | Product List | Glossary On
Versions: 1 2 3 4 5 6 7 8 9 10 11 12 13 14 15 16 17 18 19 20 21 22 23 24 25 26 27 28 29 30 31 32 33 34 35 36 37 38 39 40 41 42 43 44 45 46 47 48 49 50
000
ASUS43 KBIS 012210
RWRBIS

NWR BROADCAST TEXT
NATIONAL WEATHER SERVICE BISMARCK ND
500 PM CDT SAT AUG 01 2015

NOTE: "FAIR" INDICATES FEW OR NO CLOUDS BELOW 12,000 FEET WITH NO
SIGNIFICANT WEATHER AND/OR OBSTRUCTIONS TO VISIBILITY.


CITY           SKY/WX    TMP DP  RH WIND       PRES   REMARKS
WILLISTON      SUNNY     96  43  16 S10       29.74F HX  92
MINOT          SUNNY     90  47  22 SE13      29.77F
MINOT AFB      SUNNY     90  49  23 VRB7      29.76F
BISMARCK       SUNNY     91  60  35 W8        29.81F HX  90
DICKINSON      SUNNY     93  38  14 VRB5      29.83F
GARRISON         N/A     84  59  42 S6        29.81F
HETTINGER ARPT SUNNY     95  37  13 W14G21    29.89F HX  90
JAMESTOWN      SUNNY     85  65  51 SE6       29.79F
CROSBY         FAIR      91  46  21 S9        29.74F
HARVEY         FAIR      88  52  29 W3        29.79F
HAZEN            N/A     90  45  20 W5        29.81F
LINTON         FAIR      90  64  43 NW10G17   29.81F HX  91
OAKES            N/A     90  68  48 S3        29.78F HX  93
STANLEY        FAIR      88  48  25 SW7       29.81F
$$

CITY           SKY/WX    TMP DP  RH WIND       PRES   REMARKS
GRAND FORKS    MOSUNNY   85  60  42 SW6       29.76F
GRAND FORKS AF SUNNY     85  61  44 SW5       29.77F
DEVILS LAKE    SUNNY     88  52  29 SW6       29.77F
FARGO          SUNNY     88  58  36 S9        29.77F
CAVALIER       FAIR      84  61  45 SW7       29.74F
GRAFTON        FAIR      86  57  37 W10       29.76F
GWINNER        FAIR      88  68  51 W8        29.79F HX  91
LANGDON        FAIR      86  55  35 W10G20    29.79F
ROLLA            N/A     79  63  57 W7        29.81F
WALHALLA       FAIR      84  57  39 MISG      29.75F
$$

CITY           SKY/WX    TMP DP  RH WIND       PRES   REMARKS
ABERDEEN       SUNNY     92  63  38 W15       29.77F HX  93
MOBRIDGE       SUNNY     95  51  22 NW15      29.79F HX  92
BUFFALO          N/A     97  33  10 NW18      29.85F HX  91
RAPID CITY     SUNNY     91  52  26 VRB5      29.95F
GLASGOW        SUNNY     98  31   9 NW23G31   29.80F HX  92
SIDNEY         SUNNY    N/A N/A N/A W17G25    29.74F
WOLF POINT     SUNNY    101  31   8 NW22G32   29.78F HX  94
GLENDIVE         N/A    N/A N/A N/A MISG        N/A
MILES CITY     SUNNY    101  30   8 NW21G26   29.84F HX  94
BAKER          SUNNY     97  31   9 W16G25    29.89F HX  91
$$

CITY           SKY/WX    TMP DP  RH WIND       PRES   REMARKS
BILLINGS       MOSUNNY   98  26   7 NW9G25    29.96F HX  91
GREAT FALLS    SUNNY     97  20   6 W20G25    29.93F HX  90
REGINA         PTSUNNY   81  54  39 N20       29.83R
ESTEVAN        MOSUNNY   91  48  22 S8G17     29.74F
$$



USA.gov is the U.S. government's official web portal to all federal, state and local government web resources and services.